Martha's Vineyard, MA

5:07 AM EDT on June 28, 2017 (GMT -0400)
Martha's Vineyard

Weather History for KMVY - December, 2012

Change the Weather History Date:

Thursday, December 6, 2012

  Actual Average Record
Temperature  
Mean Temperature 28 °F -  
Max Temperature 39 °F 44 °F 64 °F (2001)
Min Temperature 16 °F 27 °F 14 °F (2006)
Degree Days  
Heating Degree Days 38    
Moisture  
Dew Point 18 °F    
Average Humidity 63    
Maximum Humidity 92    
Minimum Humidity 46    
Precipitation  
Precipitation 0.00 in - - ()
Sea Level Pressure  
Sea Level Pressure 30.27 in    
Wind  
Wind Speed 10 mph (NNW)    
Max Wind Speed 18 mph    
Max Gust Speed 24 mph    
Visibility 10 miles    
Events      
Averages and records for this station are not official NWS values.
T = Trace of Precipitation, MM = Missing Value Source: NWS Daily Summary

Daily Weather History Graph

Daily Weather History Graph

Search for Another Location

Airport or City:

Trip Planner

Search our weather history database for the weather conditions in past years. The results will help you decide how hot, cold, wet, or windy it might be!

Date:

Astronomy

Dec. 06, 2012 Rise Set
Actual Time 6:54 AM EST 4:12 PM EST
Civil Twilight 6:23 AM EST 4:43 PM EST
Nautical Twilight 5:48 AM EST 5:18 PM EST
Astronomical Twilight 5:15 AM EST 5:51 PM EST
Moon No Moon Rise 11:41 AM EST (12/6)
Length of Visible Light 10h 20m
Length of Day
9h 18m
Waning Gibbous, 49% of the Moon is Illuminated
Dec 6
Waning Gibbous
Dec 13
New
Dec 20
First Quarter
Dec 28
Full
Jan 4
Last Quarter

Hourly Weather History & Observations

Time (EST) Temp. Windchill Dew Point Humidity Pressure Visibility Wind Dir Wind Speed Gust Speed Precip Events Conditions
12:53 AM 36.0 °F 27.5 °F 19.9 °F 52% 30.12 in 10.0 mi NNW 12.7 mph - N/A   Mostly Cloudy
1:53 AM 34.0 °F 23.0 °F 18.0 °F 52% 30.16 in 10.0 mi NW 18.4 mph 24.2 mph N/A   Clear
2:53 AM 33.1 °F 23.0 °F 17.1 °F 52% 30.17 in 10.0 mi North 15.0 mph 21.9 mph N/A   Scattered Clouds
3:53 AM 32.0 °F 22.1 °F 16.0 °F 52% 30.18 in 10.0 mi NNW 13.8 mph - N/A   Clear
4:53 AM 30.9 °F 21.7 °F 17.1 °F 57% 30.21 in 10.0 mi NNW 11.5 mph - N/A   Clear
5:53 AM 30.0 °F 21.7 °F 18.0 °F 61% 30.24 in 10.0 mi NNW 9.2 mph - N/A   Clear
6:53 AM 30.0 °F 19.5 °F 18.0 °F 61% 30.27 in 10.0 mi North 13.8 mph - N/A   Clear
7:53 AM 30.9 °F 20.7 °F 18.0 °F 59% 30.27 in 10.0 mi NNW 13.8 mph - N/A   Clear
8:53 AM 33.1 °F 23.4 °F 19.9 °F 59% 30.30 in 10.0 mi NNW 13.8 mph - N/A   Clear
9:53 AM 35.1 °F 26.4 °F 19.9 °F 54% 30.30 in 10.0 mi NNW 12.7 mph - N/A   Clear
10:53 AM 37.0 °F 31.6 °F 19.9 °F 50% 30.30 in 10.0 mi North 6.9 mph - N/A   Clear
11:53 AM 37.0 °F 29.8 °F 19.9 °F 50% 30.28 in 10.0 mi North 10.4 mph - N/A   Clear
12:53 PM 37.9 °F 32.1 °F 19.9 °F 48% 30.25 in 10.0 mi NNW 8.1 mph - N/A   Clear
1:53 PM 39.0 °F 34.0 °F 19.9 °F 46% 30.26 in 10.0 mi North 6.9 mph - N/A   Clear
2:53 PM 37.9 °F 35.5 °F 19.0 °F 47% 30.27 in 10.0 mi NNW 3.5 mph - N/A   Clear
3:53 PM 36.0 °F 33.3 °F 19.0 °F 50% 30.30 in 10.0 mi WNW 3.5 mph - N/A   Clear
4:53 PM 28.0 °F - 18.0 °F 66% 30.30 in 10.0 mi Calm Calm - N/A   Clear
5:53 PM 24.1 °F - 16.0 °F 71% 30.30 in 10.0 mi Calm Calm - N/A   Clear
6:53 PM 19.9 °F - 16.0 °F 85% 30.32 in 10.0 mi Calm Calm - N/A   Clear
7:53 PM 19.0 °F - 16.0 °F 88% 30.31 in 10.0 mi Calm Calm - N/A   Clear
8:53 PM 17.1 °F - 14.0 °F 88% 30.32 in 10.0 mi Calm Calm - N/A   Clear
9:53 PM 17.1 °F - 15.1 °F 92% 30.32 in 10.0 mi Calm Calm - N/A   Clear
10:53 PM 16.0 °F - 14.0 °F 92% 30.32 in 7.0 mi Calm Calm - N/A   Clear
11:53 PM 16.0 °F 10.4 °F 12.9 °F 88% 30.31 in 7.0 mi ENE 3.5 mph - N/A   Clear